Location: Amotz
(43.3333°N, 1.5495°W)
Time: 00:09:58
(UTC+00:00)

Daily predictions for brighter satellites

Satellite Brightness Start Highest point End
(mag) Time Altitude Azimuth Time Altitude Azimuth Time Altitude Azimuth
Cosmos 1634 Rocket 4.2 00:01:55 10° N 00:08:08 61° E 00:10:17 40° SE
Cosmos 2278 Rocket 4.4 00:11:06 11° ESE 00:12:20 12° E 00:14:12 10° ENE
PSLV R/B 4.1 00:11:11 10° N 00:15:20 49° WNW 00:15:55 45° W
SJ 16-02 1.2 00:15:31 75° ESE 00:15:31 75° ESE 00:19:51 10° NNE
CZ-2C R/B 4.0 00:14:32 20° ESE 00:17:10 31° ENE 00:21:45 10° N
Cosmos 1943 Rocket 4.4 00:17:38 10° ESE 00:18:53 11° E 00:20:25 10° E
Cosmos 371 Rocket 4.0 00:19:30 39° ESE 00:19:48 39° ESE 00:24:18 10° NE
Cosmos 1300 Rocket 3.4 00:15:55 10° N 00:20:21 87° W 00:20:34 81° SSW
USA 307 3.6 00:20:42 37° WNW 00:21:29 43° NNW 00:25:18 10° NE
PSLV R/B 4.0 00:17:44 10° N 00:21:35 62° WNW 00:21:35 62° WNW
NOSS 2-1 (C) 3.6 00:20:21 10° NNW 00:24:01 67° NE 00:24:43 56° ESE
Cosmos 676 Rocket 4.1 00:24:48 49° SW 00:26:04 67° WNW 00:31:19 10° NNE
Aureole 3 4.3 00:25:37 53° SSW 00:27:05 85° W 00:33:33 10° N
Cosmos 1741 Rocket 4.5 00:26:35 42° SE 00:27:22 46° ESE 00:32:26 10° NNE
TIMED 4.3 00:27:33 87° S 00:27:37 88° ESE 00:31:55 10° NNE
NOSS 2-1 (E) 3.7 00:24:01 10° NNW 00:27:42 65° NE 00:28:38 50° ESE
Cosmos 1844 Rocket 4.1 00:36:23 18° WSW 00:39:41 31° NW 00:44:42 10° N
Cosmos 1782 Rocket 3.8 00:36:30 10° NNW 00:40:48 53° W 00:40:56 53° W
Cosmos 1378 Rocket 4.4 00:40:25 37° ESE 00:40:57 38° E 00:45:02 10° NNE
USA 234 3.2 00:41:16 10° NE 00:47:50 90° SE 00:51:09 32° SW
Cosmos 1340 Rocket 4.3 00:47:45 10° NNE 00:51:06 28° ENE 00:52:07 24° E
USA 59 Rocket 0.1 00:50:39 10° NW 00:54:17 60° WSW 00:54:17 60° WSW
Cosmos 1606 3.6 00:53:46 10° NNW 00:55:42 34° NNW 00:55:42 34° NNW
Cosmos 304 Rocket 3.6 01:00:52 61° SSW 01:01:41 84° WNW 01:06:28 10° NNE
ATLAS 3B R/B 3.4 00:55:11 10° NNW 01:03:01 61° NE 01:10:30 10° SE
H-2A R/B 2.0 01:06:39 85° NE 01:06:39 85° NE 01:10:16 10° NNW
Cosmos 841 Rocket 3.9 01:02:02 10° NNW 01:06:58 42° WSW 01:07:31 41° WSW
Cosmos 2242 Rocket 3.9 01:09:13 49° WSW 01:09:49 53° WNW 01:14:11 10° N
Landsat 4 4.2 01:11:50 40° NNW 01:11:50 40° NNW 01:13:50 10° NNW
Cosmos 2279 Rocket 4.0 01:06:52 10° NNW 01:12:59 65° W 01:15:05 41° SSW
Cosmos 1850 Rocket 4.1 01:12:44 45° SW 01:14:10 66° WNW 01:19:20 10° NNE
H-2A R/B 3.9 01:13:05 10° NE 01:15:58 19° E 01:17:10 17° ESE
NOSS 3-1 (A) 4.5 01:09:23 10° NW 01:16:33 45° WSW 01:19:44 33° SSW
SeaSat 1 3.6 01:17:10 26° WSW 01:17:10 26° WSW 01:21:01 10° NW
ATLAS 2AS CENTAUR R/B 3.3 01:12:28 22° WSW 01:17:03 52° NW 01:23:50 10° NNE
Cosmos 1869 3.4 01:14:30 10° N 01:18:09 58° E 01:18:36 53° ESE
Cosmos 1814 Rocket 4.3 01:13:04 10° NNW 01:18:24 67° ENE 01:21:14 28° SE
SL-24 R/B - RUBIN 2 4.1 01:14:41 10° NNW 01:19:33 60° NE 01:22:26 21° SE
IDEFIX/ARIANE 42P 3.4 01:15:10 10° NNE 01:20:07 41° E 01:22:10 29° SE
Cosmos 2221 Rocket 3.9 01:21:46 45° SE 01:22:47 58° E 01:27:08 10° NNE
Cosmos 1833 Rocket 2.6 01:17:42 10° NNW 01:23:21 83° WSW 01:25:45 36° SSE
Spot 2 4.3 01:22:25 42° SSE 01:24:01 83° ENE 01:28:39 10° NNW
Cosmos 2180 Rocket 4.5 01:23:01 10° NNW 01:29:08 68° W 01:31:33 38° SSW
MSX 4.3 01:26:08 10° NNE 01:31:43 51° E 01:34:26 29° SSE
Cosmos 1428 Rocket 4.5 01:32:25 34° S 01:35:15 78° E 01:41:22 10° N
NPP 4.2 01:30:20 10° NNE 01:35:35 49° E 01:38:05 28° SSE
CZ-2C R/B 3.4 01:31:24 10° N 01:36:43 57° WNW 01:38:34 37° SW
Sich 1 Rocket 3.6 01:33:40 10° N 01:38:09 83° E 01:39:37 42° SSE
Cosmos 1674 Rocket 3.6 01:38:17 51° SW 01:39:08 65° W 01:43:27 10° N
Cosmos 332 Rocket 3.8 01:37:42 43° S 01:39:13 70° ESE 01:44:01 10° NNE
Cosmos 968 Rocket 4.4 01:37:59 27° WSW 01:40:02 37° WNW 01:44:54 10° N
SL-4 R/B 4.3 01:36:58 10° NW 01:40:16 24° N 01:43:27 10° ENE
Resurs 1-4 Rocket 3.3 01:46:22 10° NNE 01:51:11 35° E 01:54:31 18° SSE
Cosmos 2082 Rocket 3.3 01:48:06 10° NNW 01:53:33 44° ENE 01:58:58 10° SE
SJ 16-02 3.8 01:52:29 10° WNW 01:54:14 12° NW 01:56:01 10° NNW
Cosmos 2278 Rocket 2.1 01:52:55 35° SSW 01:55:27 86° ESE 02:01:10 10° NNE
Timation 2 Rocket 4.2 01:53:45 29° SW 01:56:45 58° WNW 02:02:39 10° NNE
CZ-2C R/B 3.3 01:56:00 31° SW 01:57:17 36° W 02:02:08 10° NNW
Cosmos 2151 Rocket 4.2 01:56:50 10° NNW 02:00:57 39° W 02:01:53 35° WSW
Cosmos 1943 Rocket 2.1 01:59:08 33° SSW 02:01:40 86° ESE 02:07:13 10° NNE
Okean 2 Rocket 3.5 01:59:38 10° NNW 02:03:54 45° W 02:05:04 36° SW
CZ-2D R/B 3.0 02:00:25 10° NNE 02:05:34 43° E 02:09:13 18° SSE
ALOS 3.9 02:03:57 10° NE 02:07:49 27° E 02:11:20 12° SSE
USA 229 DEB 4.0 02:03:23 10° NW 02:10:58 75° WSW 02:19:09 10° SSE
USA 229 4.0 02:03:30 10° NW 02:11:04 76° WSW 02:19:15 10° SSE
Okean 1 Rocket 3.5 02:09:36 10° NNW 02:13:52 46° W 02:15:20 33° SW
Cosmos 1025 Rocket 3.6 02:13:48 32° WSW 02:15:08 42° WNW 02:19:12 10° N
USA 81 4.4 02:21:16 27° SW 02:23:48 48° W 02:28:54 10° N
Cosmos 1553 Rocket 4.3 02:18:15 10° N 02:24:17 64° E 02:30:20 10° SSE
Cosmos 1340 Rocket 4.3 02:23:45 10° NW 02:26:37 20° W 02:26:57 20° W
Cosmos 1092 Rocket 4.1 02:26:09 24° SSW 02:30:05 64° W 02:36:22 10° N
USA 234 4.5 02:24:31 10° NE 02:30:25 38° NNW 02:36:20 10° W
Cosmos 1570 Rocket 4.0 02:26:01 10° NNW 02:31:24 88° ENE 02:36:43 10° SSE
Cosmos 1975 Rocket 3.0 02:29:18 24° S 02:31:56 89° E 02:36:23 10° N
Cosmos 2369 Rocket 4.1 02:28:18 10° SSE 02:32:36 22° E 02:36:54 10° NE
Cosmos 292 Rocket 3.7 02:30:12 26° SSW 02:32:55 83° WNW 02:37:45 10° NNE
Meteor 2-1 Rocket 4.5 02:28:21 10° NNW 02:34:11 58° W 02:38:29 18° SSW
ADEOS II 2.5 02:31:05 10° NNE 02:36:15 57° E 02:40:38 14° S
Cosmos 158 Rocket 4.3 02:32:10 10° NW 02:36:55 41° WSW 02:39:37 22° SSW
Cosmos 2208 Rocket 4.1 02:34:05 10° NNW 02:39:16 76° ENE 02:44:26 10° SSE
Meteor 2-20 4.5 02:36:48 10° N 02:43:00 89° E 02:49:10 10° S
Cosmos 773 Rocket 4.4 02:37:56 10° NNW 02:43:07 65° ENE 02:48:18 10° SSE
MOZ.5/SAFIR/RUBIN 5/SL-8 4.3 02:41:31 23° SSW 02:43:43 37° W 02:48:00 10° NNW
USA 305 3.9 02:44:34 10° NNW 02:45:21 12° NNE 02:45:57 10° NE
Cosmos 1515 2.7 02:44:40 10° NNW 02:47:22 68° W 02:48:31 29° S
SAR-Lupe-3 4.0 02:45:31 16° SSE 02:47:41 82° ENE 02:50:38 10° NNW
H-2A R/B 2.8 02:47:51 10° N 02:51:29 34° WNW 02:53:41 20° WSW
USA 281 4.1 02:46:33 10° NE 02:52:47 44° ESE 02:58:59 10° S
ATLAS 3B R/B 3.6 02:46:35 10° NW 02:53:25 34° WSW 02:59:57 10° S
Timation 1 Rocket 4.3 02:47:27 10° NNW 02:53:27 70° WSW 02:59:23 10° SSE
FENGYUN 3A 4.1 02:48:44 10° N 02:53:54 50° WNW 02:57:44 18° SW
IDEFIX/ARIANE 42P 3.9 02:55:02 10° N 02:59:22 27° WNW 03:02:52 14° WSW
Cosmos 1455 Rocket 3.9 02:56:02 10° NNW 02:59:53 31° W 03:02:20 18° SW
Cosmos 220 Rocket 3.9 02:56:29 10° NNW 03:00:37 64° WSW 03:04:43 10° S
Cosmos 1812 3.8 03:00:13 10° NW 03:02:34 19° W 03:03:23 18° WSW
Envisat 3.1 02:59:42 10° NNE 03:04:48 81° ESE 03:09:48 10° S
Atlas Centaur 2 4.1 03:04:31 14° SSW 03:09:36 25° SSE 03:15:52 10° ESE
Cosmos 2058 4.0 03:09:05 10° SSE 03:12:49 40° E 03:16:35 10° NNE
H-2A R/B 3.3 03:08:19 10° NNE 03:13:17 40° E 03:18:05 10° SSE
ATLAS 5 CENTAUR R/B 0.9 03:14:21 17° SW 03:16:33 57° NW 03:19:48 10° NNE
NOSS 3-3 (A) 3.8 03:12:28 13° SSW 03:17:06 70° ESE 03:23:07 10° NE
Cosmos 1666 2.7 03:17:28 15° WNW 03:17:28 15° WNW 03:18:33 10° NW
SL-4 R/B 3.3 03:15:16 10° NW 03:18:58 40° NNE 03:22:29 10° E
Cosmos 2228 3.2 03:16:35 10° NNW 03:20:32 46° W 03:24:28 10° SSW
Cosmos 1536 Rocket 3.6 03:19:23 10° S 03:23:41 82° E 03:27:59 10° N
Cosmos 1400 Rocket 3.9 03:22:17 10° N 03:25:59 44° ENE 03:29:41 10° SSE
Cosmos 1782 4.0 03:23:42 10° N 03:27:10 40° ENE 03:30:36 10° SSE
COSMOS 2406 3.3 03:22:44 10° NNW 03:28:22 57° WSW 03:33:57 10° S
Resurs 1-4 Rocket 3.1 03:26:15 10° N 03:30:52 32° WNW 03:35:28 10° SW
Cosmos 2082 Rocket 3.1 03:32:34 10° NW 03:37:23 29° WSW 03:42:12 10° SSW
Cosmos 2098 Rocket 4.3 03:36:54 10° NW 03:39:11 16° W 03:41:18 10° SW
Cosmos 2278 Rocket 4.1 03:36:32 10° W 03:40:17 18° NW 03:44:03 10° N
Cosmos 1544 Rocket 4.3 03:40:00 10° NNW 03:43:53 34° W 03:47:46 10° SSW
H-2A R/B 3.4 03:40:46 10° NNE 03:44:43 84° ESE 03:48:38 10° SSW
ALOS 3.2 03:40:46 10° N 03:44:49 32° WNW 03:48:50 10° SW
CZ-2D R/B 3.4 03:40:50 10° N 03:45:18 27° WNW 03:49:41 10° WSW
Cosmos 1943 Rocket 4.1 03:42:37 10° W 03:46:09 17° NW 03:49:42 10° N
Cosmos 1656 Rocket 4.0 03:41:10 10° SW 03:46:42 55° WNW 03:52:13 10° NNE
METEOR-M 4.2 03:42:21 10° N 03:47:41 70° WNW 03:52:58 10° SSW
SL-16 R/B 2.6 03:41:51 10° S 03:47:58 64° WSW 03:54:10 10° NNW
Cosmos 1606 Rocket 3.7 03:45:05 10° N 03:49:23 77° E 03:53:39 10° SSE
